Pagina principale
METAR-TAF:

METAR-TAF

Aeroporti :

Entrammes

Laval, Francia

latitudine: 48-01-56N, longitudine: 000-44-34W, altezza: 101 m

Osservazione

Il bollettino è stato emesso 22 minuti fa, alle 09:30 UTC
Vento 13 kt da ovest/sud-ovest
Temperature 6°C
Umidità 81%
Pressione 1006 hPa
Visibilità 10 km o più
nessuna nube inferiore a 1500 m e nessun cumulonembo

METAR: LFOV 280930Z AUTO 24013KT CAVOK 06/03 Q1006

Ora: 10:52 (09:52 UTC)


TAF: mancante

Osservazioni e previsioni meteorologiche di più di 4000 aeroporti (messaggi METAR e TAF).

Le stazioni disponibili sono rappresentate dai dischi gialli e rossi sulla carta.

Puntare il mouse per vedere il nome della stazione.

Clicca sopra per visualizzare le osservazioni e previsioni meteorologiche.

Per cambiare la mappa : fare clic sui pulsanti verdi con una croce nera per ingrandire, il pulsante verde con un trattino per diminuire, o sulla freccia verde per le mappe adiacenti.


METAR-TAF: